This is the latest recevied weather packets stored in our database for station/object EA2FBA-10. If no packets are shown the sender has not sent any weather packets the latest 10 day(s).
| Time | Temp. | Humidity | Pressure | Rain* | Wind** | Luminosity | Snow |
|---|---|---|---|---|---|---|---|
| 1788030616 | 22.78° C | 44% | 957.2 hPa | - | - | - | - |
| 1788029716 | 22.78° C | 43% | 957 hPa | - | - | - | - |
| 1788028816 | 23.33° C | 41% | 956.7 hPa | - | - | - | - |
| 1788027925 | 23.89° C | 39% | 956.8 hPa | - | - | - | - |
| 1788027916 | 23.89° C | 39% | 956.8 hPa | - | - | - | - |
| 1788027025 | 24.44° C | 39% | 956.6 hPa | - | - | - | - |
| 1788027015 | 24.44° C | 39% | 956.6 hPa | - | - | - | - |
| 1788026115 | 24.44° C | 39% | 956.4 hPa | - | - | - | - |
| 1788025228 | 25° C | 40% | 956.2 hPa | - | - | - | - |
| 1788025215 | 25° C | 40% | 956.2 hPa | - | - | - | - |
| 1788024339 | 25° C | 40% | 956.1 hPa | - | - | - | - |
| 1788024315 | 25° C | 40% | 956.1 hPa | - | - | - | - |
| 1788023427 | 25° C | 40% | 955.7 hPa | - | - | - | - |
| 1788023415 | 25° C | 40% | 955.7 hPa | - | - | - | - |
| 1788022524 | 25° C | 40% | 955.4 hPa | - | - | - | - |
| 1788022515 | 25° C | 40% | 955.4 hPa | - | - | - | - |
| 1788021624 | 25.56° C | 40% | 955.2 hPa | - | - | - | - |
| 1788021615 | 25.56° C | 40% | 955.2 hPa | - | - | - | - |
| 1788020726 | 25.56° C | 40% | 955 hPa | - | - | - | - |
| 1788020715 | 25.56° C | 40% | 955 hPa | - | - | - | - |
| 1788019814 | 25.56° C | 39% | 954.9 hPa | - | - | - | - |
| 1788018914 | 25° C | 38% | 955.1 hPa | - | - | - | - |
| 1788018024 | 25.56° C | 36% | 955.1 hPa | - | - | - | - |
| 1788018014 | 25.56° C | 36% | 955.1 hPa | - | - | - | - |
| 1788017114 | 25° C | 38% | 955.2 hPa | - | - | - | - |
* Rain since midnight (hover to see other rain measurements)
** Current wind speed in m/s (hover to see current wind gust speed)